Volver al catálogo

KUIPER-00547

ActivoComunicacionesVLEO
NORAD 69615·PAYLOAD·🇺🇸 United States

Lanzado Jun 17, 2026 desde Guiana Space Centre

Loading…

Próximos Pases (próximas 24 horas)

TLE

ActualizadoSource: CelesTrak SupGP

Época: Sep 14, 2026, 22:09 UTC

1 69615C 26140Z   26257.92355324  .00002908  00000+0  79638-4 0  2577
2 69615  51.8819 324.3857 0009527 142.4116 260.6299 15.36672323    18

Sigue KUIPER-00547 en tiempo real con AllMySat

Download on the App Store